Charleston, WV

6:31 PM EDT on April 23, 2018 (GMT -0400)
Yeager Airport

Weather History for KCRW - March, 2013

Change the Weather History Date:

Monday, March 4, 2013

  Actual Average Record
Temperature  
Mean Temperature 33 °F 42 °F  
Max Temperature 44 °F 52 °F 84 °F (1976)
Min Temperature 22 °F 32 °F -5 °F (1943)
Degree Days  
Heating Degree Days 32 23  
Month to date heating degree days 135 95  
Since 1 July heating degree days 3518 3549  
Cooling Degree Days 0 0  
Month to date cooling degree days 0 0  
Year to date cooling degree days 0 0  
Moisture  
Dew Point 16 °F    
Average Humidity 51    
Maximum Humidity 74    
Minimum Humidity 27    
Precipitation  
Precipitation T in 0.13 in 2.03 in (2015)
Month to date precipitation 0.05 0.51  
Year to date precipitation 6.08 6.70  
Snow  
Snow 0.00 in 0.20 in 5.00 in (1917)
Month to date snowfall 0.2 0.9  
Since 1 September snowfall 23.0 30.1  
Snow Depth T in    
Sea Level Pressure  
Sea Level Pressure 30.12 in    
Wind  
Wind Speed 3 mph (West)    
Max Wind Speed 9 mph    
Max Gust Speed -    
Visibility 10 miles    
Events      
T = Trace of Precipitation, MM = Missing Value Source: NWS Daily Summary

Daily Weather History Graph

Daily Weather History Graph

Search for Another Location

Airport or City:

Astronomy

Mar. 04, 2013 Rise Set
Actual Time 6:53 AM EST 6:22 PM EST
Civil Twilight 6:27 AM EST 6:49 PM EST
Nautical Twilight 5:56 AM EST 7:19 PM EST
Astronomical Twilight 5:25 AM EST 7:50 PM EST
Moon 12:58 AM EST (3/4) 11:06 AM EST (3/4)
Length of Visible Light 12h 22m
Length of Day
11h 29m
Waning Gibbous, 52% of the Moon is Illuminated
Mar 4
Waning Gibbous
Mar 4
Last Quarter
Mar 11
New
Mar 19
First Quarter
Mar 27
Full

Hourly Weather History & Observations

Time (EST) Temp. Windchill Dew Point Humidity Pressure Visibility Wind Dir Wind Speed Gust Speed Precip Events Conditions
12:54 AM 27.0 °F 23.0 °F 18.0 °F 69% 30.09 in 9.0 mi West 3.5 mph - 0.00 in   Overcast
1:54 AM 27.0 °F 19.5 °F 18.0 °F 69% 30.11 in 10.0 mi West 6.9 mph - N/A   Mostly Cloudy
2:54 AM 27.0 °F 21.6 °F 17.1 °F 66% 30.12 in 10.0 mi West 4.6 mph - N/A   Overcast
3:54 AM 27.0 °F 20.5 °F 15.1 °F 61% 30.12 in 10.0 mi WNW 5.8 mph - N/A   Overcast
4:54 AM 25.0 °F 18.1 °F 15.1 °F 66% 30.14 in 10.0 mi West 5.8 mph - N/A   Mostly Cloudy
5:54 AM 25.0 °F 19.3 °F 15.1 °F 66% 30.16 in 10.0 mi West 4.6 mph - N/A   Partly Cloudy
6:54 AM 23.0 °F - 16.0 °F 74% 30.17 in 10.0 mi Calm Calm - N/A   Partly Cloudy
7:54 AM 25.0 °F 20.7 °F 17.1 °F 72% 30.19 in 10.0 mi SW 3.5 mph - N/A   Clear
8:54 AM 28.0 °F 22.8 °F 16.0 °F 61% 30.21 in 10.0 mi WSW 4.6 mph - N/A   Clear
9:54 AM 30.0 °F 23.2 °F 15.1 °F 54% 30.20 in 10.0 mi SW 6.9 mph - N/A   Scattered Clouds
10:54 AM 32.0 °F 24.2 °F 16.0 °F 52% 30.19 in 10.0 mi West 9.2 mph - N/A   Partly Cloudy
11:54 AM 33.1 °F - 14.0 °F 46% 30.17 in 10.0 mi Calm Calm - N/A   Partly Cloudy
12:54 PM 36.0 °F 32.1 °F 16.0 °F 44% 30.15 in 10.0 mi Variable 4.6 mph - N/A   Clear
1:54 PM 39.0 °F 36.8 °F 12.9 °F 34% 30.11 in 10.0 mi NNW 3.5 mph - N/A   Clear
2:54 PM 42.1 °F - 16.0 °F 35% 30.10 in 10.0 mi Calm Calm - N/A   Clear
3:54 PM 43.0 °F 40.3 °F 12.9 °F 30% 30.08 in 10.0 mi West 4.6 mph - N/A   Clear
4:54 PM 44.1 °F 40.8 °F 14.0 °F 30% 30.07 in 10.0 mi West 5.8 mph - N/A   Clear
5:54 PM 42.1 °F - 10.9 °F 28% 30.08 in 10.0 mi Calm Calm - N/A   Clear
6:54 PM 37.9 °F 35.5 °F 12.0 °F 35% 30.08 in 10.0 mi SE 3.5 mph - N/A   Clear
7:54 PM 35.1 °F - 15.1 °F 44% 30.09 in 10.0 mi Calm Calm - N/A   Clear
8:54 PM 33.1 °F - 17.1 °F 52% 30.09 in 10.0 mi Calm Calm - N/A   Clear
9:54 PM 30.0 °F - 19.9 °F 66% 30.08 in 10.0 mi Calm Calm - N/A   Mostly Cloudy
10:54 PM 30.9 °F - 21.0 °F 67% 30.06 in 10.0 mi Calm Calm - N/A   Mostly Cloudy
11:54 PM 32.0 °F - 23.0 °F 69% 30.07 in 9.0 mi Calm Calm - 0.00 in   Light Ice Pellets